map of CKV home
CKV - Airport
Location
City:  Clarksville, Tennessee, United States
Name:Outlaw Field
ICAO:KCKV
IATA:CKV
FAA LID:CKV

Details
Type:Airport (Airfield)
Use:Public/Civil
Latitude:3637'19"N (36.621861)
Longitude:8724'54"W (-87.414943)
Datum:WGS 1984
Elevation:549 ft (167 m)
Variation:3.45W (WMM2015 magnetic declination)
-0.08 annual change
Runways:2
Longest:5999 × 100 ft (1828 × 30.5 m), paved

Time
Time Zone:UTC-6 (DST-5)
Local Time:

Weather
METAR:KCKV 170252Z AUTO 27005KT 10SM CLR 07/01 A3021 RMK AO2 SLP232 T00720011 51010
TAF:KCKV 162320Z 1700/1724 30003KT P6SM SCT250

Related Locations
Nearby:
Farthest:YAUG: 11164 mi / 17966 km
Augusta [Augusta Airport], WA, AU

Find:

   beyond  
but within

Other Information
Maps:
NOTAMs:
Links:
Sources:

  
  • flag of United States
  • flag of Tennessee
  

Sectional Chart

Flight Planning
at skyvector.com

Satellite Image

Google Maps Satellite view

 

Copyright © 2004-2018 Karl L. Swartz. All rights reserved.
The Great Circle Mapper name and logo are trademarks of the Great Circle Mapper.
All other trademarks mentioned herein belong to their respective owners.
Please see credits for attibutions and further copyright information.

  Follow gcmap on Facebook Follow gcmap on Twitter Follow gcmap on Google+ GCmap on LinkedIn

hCard Microformat

Geo Microformat